Weather Roundup
Issued by NWS

Home | Current Version | Previous Version | Text Only | Print | Product List | Glossary On
Versions: 1 2 3 4 5 6 7 8 9 10 11 12 13 14 15 16 17 18 19 20 21 22 23 24 25 26 27 28 29 30 31 32 33 34 35 36 37 38 39 40 41 42 43 44 45 46 47 48 49 50
000
NZUS93 KARX 030610
HRRWXR

CURRENT HOURLY OBSERVATIONS ACROSS
MUCH OF THE UPPER MISSISSIPPI VALLEY
NATIONAL WEATHER SERVICE LA CROSSE WI
100 AM CDT WED JUN 03 2015


...SOUTHEAST MINNESOTA...


CITY           SKY/WX    TMP DP  RH WIND       PRES   REMARKS
ROCHESTER      CLEAR     61  53  75 S13       29.97F
ROCHESTER/MAYO FAIR      61  52  72 SE7       29.96F
WINONA         PTCLDY    61  50  67 SE5       29.98R
AUSTIN         CLEAR     61  54  77 S9        29.96S
ALBERT LEA     CLEAR     63  54  72 S13       29.95S
DODGE CENTER   CLEAR     61  54  77 S15       29.95F
PRESTON        CLEAR     56  50  80 S8        29.99S
OWATONNA       CLEAR     64  54  68 S10       29.93F
FARIBAULT      PTCLDY    63  54  72 S9        29.93S
$$

...ELSEWHERE IN MINNESOTA...


CITY           SKY/WX    TMP DP  RH WIND       PRES   REMARKS
MINNEAPOLIS    MOCLDY    65  53  65 SE8       29.91F
INTNL FALLS    LGT RAIN  58  56  93 SE12      29.83F
DULUTH         MOCLDY    50  40  68 E9        29.89F
RED WING       CLEAR     63  50  63 SE7       29.92F
REDWOOD FALLS  PTCLDY    66  55  67 S16       29.84F
MANKATO        MOCLDY    64  52  63 S15       29.91S
WORTHINGTON    PTCLDY    63  54  72 S18       29.87F
FAIRMONT       PTCLDY    63  52  67 S16       29.89F
$$

...SOUTHWEST WISCONSIN...


CITY           SKY/WX    TMP DP  RH WIND       PRES   REMARKS
LA CROSSE      PTCLDY    63  49  60 S8        29.98F
PRAIRIE DU CHI MOCLDY    56  49  76 E6        30.01S
BOSCOBEL       MOCLDY    53  50  89 CALM      30.02S
LONE ROCK      MOCLDY    53  49  86 CALM      30.04S
PLATTEVILLE    MOCLDY    60  48  65 SE8       30.03S
FORT MC COY    PTCLDY    49  45  85 CALM      30.01F
CAMP DOUGLAS   PTCLDY    46  46 100 SE5       30.01F
VIROQUA        FAIR      59  47  65 SE9       30.01F
WIS DELLS      PTCLDY    54  46  75 SE6       30.04F
$$

...ELSEWHERE IN WISCONSIN...


CITY           SKY/WX    TMP DP  RH WIND       PRES   REMARKS
MILWAUKEE      MOCLDY    51  43  74 S6        30.10S
MADISON        MOCLDY    59  45  59 S8        30.05F
GREEN BAY      PTCLDY    52  40  63 S3        30.07S
EAU CLAIRE     PTCLDY    62  48  60 S6        29.96S
BLACK RVR FLS  FAIR      47  47 100 CALM      29.99F
MEDFORD        MOCLDY    56  46  68 SE7       30.01F
WAUSAU         PTCLDY    56  44  64 SE7       30.02F
WIS RAPIDS     CLEAR     56  46  69 S6        30.04F
MARSHFIELD     PTCLDY    54  45  71 S5        30.01F
RICE LAKE      PTCLDY    61  50  66 SE8       29.96F
$$

...NORTHEAST IOWA...


CITY           SKY/WX    TMP DP  RH WIND       PRES   REMARKS
DECORAH        PTCLDY    59  52  77 S6        29.99F
MASON CITY     CLEAR     60  54  80 S9        29.97F
CHARLES CITY   CLEAR     59  55  88 S10       29.99S
OELWEIN        MOCLDY    57  54  88 SE7       30.01S
$$

...ELSEWHERE IN IOWA...


CITY           SKY/WX    TMP DP  RH WIND       PRES   REMARKS
DES MOINES     MOCLDY    62  55  77 SE10      29.97F
IOWA CITY      MOCLDY    59  55  87 SE3       30.02S
FORT DODGE     PTCLDY    63  54  72 S9        29.96S
$$

...NORTHERN ILLINOIS...


CITY           SKY/WX    TMP DP  RH WIND       PRES   REMARKS
CHICAGO-OHARE  PTCLDY    54  44  69 SE6       30.09S
CHICAGO-MIDWAY MOCLDY    57  47  69 E5        30.09F
MOLINE         PTCLDY    59  50  72 SE5       30.02F
ROCKFORD       CLOUDY    58  49  72 SE8       30.07F
PEORIA         PTCLDY    59  52  77 E6        30.04F
$$

NOTE: "FAIR" INDICATES FEW OR NO CLOUDS BELOW 12,000 FEET WITH NO
SIGNIFICANT WEATHER AND/OR OBSTRUCTIONS TO VISIBILITY. WIND
SPEEDS ARE IN MILES-PER-HOUR.



USA.gov is the U.S. government's official web portal to all federal, state and local government web resources and services.